Moriarty, NM

4:01 AM MDT on August 18, 2017 (GMT -0600)
Moriarty

Weather History for K0E0 - November, 2012

Change the Weather History Date:

Wednesday, November 28, 2012

  Actual Average (KABQ) Record (KABQ)
Temperature  
Mean Temperature 38 °F -  
Max Temperature 63 °F 48 °F 72 °F (1949)
Min Temperature 12 °F 25 °F -6 °F (1976)
Degree Days  
Heating Degree Days 28    
Moisture  
Dew Point 10 °F    
Average Humidity 39    
Maximum Humidity 68    
Minimum Humidity 15    
Precipitation  
Precipitation 0.00 in - - ()
Sea Level Pressure  
Sea Level Pressure 30.32 in    
Wind  
Wind Speed 5 mph (North)    
Max Wind Speed 15 mph    
Max Gust Speed 21 mph    
Visibility 10 miles    
Events      
Averages and records for this station are not official NWS values.
T = Trace of Precipitation, MM = Missing Value Source: NWS Daily Summary

Daily Weather History Graph

Daily Weather History Graph

Search for Another Location

Airport or City:

Trip Planner

Search our weather history database for the weather conditions in past years. The results will help you decide how hot, cold, wet, or windy it might be!

Date:

Astronomy

Nov. 28, 2012 Rise Set
Actual Time 6:51 AM MST 4:52 PM MST
Civil Twilight 6:23 AM MST 5:20 PM MST
Nautical Twilight 5:52 AM MST 5:51 PM MST
Astronomical Twilight 5:22 AM MST 6:22 PM MST
Moon 5:10 PM MST (11/28) 6:51 AM MST (11/28)
Length of Visible Light 10h 56m
Length of Day
10h 01m
Full, 100% of the Moon is Illuminated
Nov 28
Full
Dec 6
Last Quarter
Dec 13
New
Dec 19
First Quarter
Dec 28
Full

Hourly Weather History & Observations

Time (MST) Temp. Windchill Dew Point Humidity Pressure Visibility Wind Dir Wind Speed Gust Speed Precip Events Conditions
12:15 AM 20.5 °F 11.7 °F 6.3 °F 54% 30.37 in 10.0 mi ENE 6.9 mph - N/A   Clear
12:35 AM 21.4 °F 13.8 °F 6.6 °F 53% 30.37 in 10.0 mi NE 5.8 mph - N/A   Clear
12:55 AM 23.0 °F 18.4 °F 8.6 °F 54% 30.37 in 10.0 mi NNE 3.5 mph - N/A   Clear
1:15 AM 21.4 °F 15.1 °F 7.7 °F 56% 30.37 in 10.0 mi NNE 4.6 mph - N/A   Clear
1:55 AM 20.1 °F 13.6 °F 6.8 °F 56% 30.37 in 10.0 mi NE 4.6 mph - N/A   Clear
2:15 AM 20.1 °F 12.3 °F 6.6 °F 56% 30.37 in 10.0 mi NNE 5.8 mph - N/A   Clear
2:35 AM 19.8 °F 13.2 °F 6.8 °F 57% 30.38 in 10.0 mi NNE 4.6 mph - N/A   Clear
2:55 AM 18.0 °F 9.8 °F 5.7 °F 59% 30.37 in 10.0 mi NE 5.8 mph - N/A   Clear
3:15 AM 20.1 °F 12.3 °F 8.1 °F 60% 30.37 in 10.0 mi North 5.8 mph - N/A   Clear
3:35 AM 18.5 °F 10.4 °F 7.3 °F 62% 30.37 in 10.0 mi North 5.8 mph - N/A   Clear
3:55 AM 16.7 °F 9.6 °F 6.1 °F 63% 30.37 in 10.0 mi North 4.6 mph - N/A   Clear
4:15 AM 15.6 °F 7.0 °F 6.4 °F 67% 30.36 in 10.0 mi NE 5.8 mph - N/A   Clear
4:35 AM 17.4 °F 12.1 °F 7.7 °F 66% 30.37 in 10.0 mi North 3.5 mph - N/A   Clear
4:55 AM 15.8 °F - 6.1 °F 66% 30.37 in 10.0 mi Calm Calm - N/A   Clear
5:15 AM 18.1 °F - 8.2 °F 65% 30.37 in 10.0 mi Calm Calm - N/A   Clear
5:35 AM 15.8 °F - 5.2 °F 63% 30.37 in 10.0 mi Calm Calm - N/A   Clear
5:55 AM 12.2 °F 6.1 °F 2.3 °F 65% 30.37 in 10.0 mi North 3.5 mph - N/A   Clear
6:15 AM 13.6 °F 6.0 °F 3.9 °F 65% 30.37 in 10.0 mi NNE 4.6 mph - N/A   Clear
6:35 AM 13.6 °F 6.0 °F 4.8 °F 68% 30.37 in 10.0 mi NNE 4.6 mph - N/A   Clear
6:55 AM 14.7 °F 7.3 °F 5.2 °F 66% 30.38 in 10.0 mi North 4.6 mph - N/A   Clear
7:15 AM 14.9 °F 9.2 °F 5.0 °F 65% 30.38 in 10.0 mi NNW 3.5 mph - N/A   Clear
7:35 AM 18.3 °F - 6.6 °F 60% 30.39 in 10.0 mi Calm Calm - N/A   Clear
7:55 AM 22.8 °F - 7.7 °F 52% 30.39 in 10.0 mi Calm Calm - N/A   Clear
8:15 AM 25.5 °F - 8.4 °F 48% 30.39 in 10.0 mi Calm Calm - N/A   Clear
8:35 AM 32.7 °F 27.3 °F 11.1 °F 41% 30.39 in 10.0 mi NNE 5.8 mph - N/A   Clear
8:55 AM 38.3 °F 32.5 °F 11.3 °F 33% 30.38 in 10.0 mi NNE 8.1 mph - N/A   Clear
9:15 AM 40.6 °F 36.7 °F 12.2 °F 31% 30.38 in 10.0 mi North 5.8 mph - N/A   Clear
9:35 AM 43.9 °F 41.3 °F 13.5 °F 29% 30.38 in 10.0 mi North 4.6 mph - N/A   Clear
9:55 AM 46.8 °F - 15.3 °F 28% 30.38 in 10.0 mi NNE 4.6 mph - N/A   Clear
10:15 AM 49.6 °F - 16.7 °F 27% 30.38 in 10.0 mi North 4.6 mph - N/A   Clear
10:35 AM 51.6 °F - 16.3 °F 25% 30.37 in 10.0 mi Calm Calm - N/A   Clear
10:55 AM 54.7 °F - 17.4 °F 23% 30.36 in 10.0 mi North 3.5 mph - N/A   Clear
11:15 AM 57.0 °F - 17.1 °F 21% 30.35 in 10.0 mi North 3.5 mph - N/A   Clear
11:35 AM 57.6 °F - 16.3 °F 20% 30.33 in 10.0 mi North 3.5 mph - N/A   Clear
11:55 AM 59.0 °F - 15.4 °F 18% 30.32 in 10.0 mi Calm Calm - N/A   Clear
12:15 PM 59.2 °F - 14.7 °F 18% 30.31 in 10.0 mi NE 3.5 mph - N/A   Clear
12:35 PM 60.1 °F - 16.7 °F 18% 30.30 in 10.0 mi NNW 3.5 mph - N/A   Clear
12:55 PM 62.6 °F - 14.7 °F 16% 30.29 in 10.0 mi West 10.4 mph 18.4 mph N/A   Clear
1:15 PM 63.5 °F - 15.1 °F 15% 30.29 in 10.0 mi SW 11.5 mph 20.7 mph N/A   Clear
1:35 PM 62.8 °F - 14.9 °F 16% 30.27 in 10.0 mi WSW 15.0 mph 18.4 mph N/A   Clear
1:55 PM 60.3 °F - 14.0 °F 16% 30.26 in 10.0 mi WSW 13.8 mph - N/A   Clear
2:15 PM 62.6 °F - 14.9 °F 16% 30.25 in 10.0 mi WSW 15.0 mph 19.6 mph N/A   Clear
2:35 PM 61.0 °F - 14.2 °F 16% 30.25 in 10.0 mi West 12.7 mph - N/A   Clear
2:55 PM 59.2 °F - 14.0 °F 17% 30.25 in 10.0 mi West 15.0 mph 18.4 mph N/A   Clear
3:15 PM 61.0 °F - 14.5 °F 16% 30.25 in 10.0 mi West 11.5 mph 16.1 mph N/A   Clear
3:35 PM 59.7 °F - 13.1 °F 16% 30.25 in 10.0 mi West 12.7 mph - N/A   Clear
3:55 PM 57.2 °F - 11.3 °F 16% 30.25 in 10.0 mi West 10.4 mph - N/A   Clear
4:15 PM 54.9 °F - 11.1 °F 18% 30.26 in 10.0 mi West 8.1 mph - N/A   Clear
4:55 PM 49.3 °F - 10.9 °F 21% 30.25 in 10.0 mi West 6.9 mph - N/A   Clear
5:15 PM 48.7 °F - 11.7 °F 23% 30.25 in 10.0 mi West 8.1 mph - N/A   Clear
5:35 PM 48.4 °F - 12.4 °F 24% 30.25 in 10.0 mi West 8.1 mph - N/A   Clear
5:55 PM 44.8 °F 41.0 °F 11.1 °F 26% 30.25 in 10.0 mi West 6.9 mph - N/A   Clear
6:15 PM 44.8 °F 39.9 °F 12.2 °F 27% 30.25 in 10.0 mi NW 9.2 mph - N/A   Clear
6:55 PM 38.8 °F - 10.4 °F 31% 30.26 in 10.0 mi Calm Calm - N/A   Clear
7:15 PM 36.1 °F - 9.1 °F 33% 30.26 in 10.0 mi Calm Calm - N/A   Clear
7:35 PM 35.8 °F - 9.5 °F 34% 30.26 in 10.0 mi Calm Calm - N/A   Clear
7:55 PM 37.6 °F 31.6 °F 10.6 °F 33% 30.26 in 10.0 mi West 8.1 mph - N/A   Clear
8:15 PM 38.3 °F - 10.8 °F 32% 30.26 in 10.0 mi Calm Calm - N/A   Clear
8:35 PM 35.1 °F 31.0 °F 10.4 °F 36% 30.26 in 10.0 mi SSW 4.6 mph - N/A   Clear
8:55 PM 35.1 °F - 10.4 °F 36% 30.26 in 10.0 mi Calm Calm - N/A   Clear
9:15 PM 28.8 °F 23.7 °F 6.8 °F 40% 30.27 in 10.0 mi NE 4.6 mph - N/A   Clear
9:35 PM 30.7 °F 27.3 °F 7.9 °F 38% 30.26 in 10.0 mi ENE 3.5 mph - N/A   Clear
9:55 PM 27.7 °F 21.3 °F 6.3 °F 40% 30.27 in 10.0 mi NNE 5.8 mph - N/A   Clear
10:15 PM 27.1 °F 23.2 °F 7.2 °F 43% 30.27 in 10.0 mi East 3.5 mph - N/A   Clear
10:35 PM 27.9 °F - 6.8 °F 41% 30.26 in 10.0 mi Calm Calm - N/A   Clear
10:55 PM 25.3 °F 21.1 °F 5.4 °F 43% 30.26 in 10.0 mi ENE 3.5 mph - N/A   Clear
11:15 PM 24.4 °F - 5.0 °F 44% 30.27 in 10.0 mi Calm Calm - N/A   Clear
11:35 PM 24.4 °F 18.6 °F 5.4 °F 44% 30.26 in 10.0 mi NE 4.6 mph - N/A   Clear
11:55 PM 25.5 °F 21.3 °F 6.3 °F 44% 30.26 in 10.0 mi NNE 3.5 mph - N/A   Clear